Hourly Data Report for October 19, 2013

All times are specified in Local Standard Time (LST). Add 1 hour to adjust for Daylight Saving Time where and when it is observed.

GRISE FIORD CLIMATE
NUNAVUT

76°25'22.040" N
82°54'08.020" W
44.50 m
2402351
71971
NGC

Download Data

Hourly Data (October 2013)
Hourly Data Report for October 19, 2013
Temp Definition
°C
Dew Point Temp Definition
°C
Rel Hum Definition
%
Wind Dir Definition
10's deg

Wind Spd Definition
km/h
Visibility Definition
km
Stn Press Definition
kPa
Hmdx Definition


Wind Chill Definition


Weather Definition


TIME
00:00 -6.5 -7.0 96 3 4   101.09   -8 LegendNANA
01:00 -5.1 -5.4 98 5 4   101.12   -7 LegendNANA
02:00 -5.2 -5.8 96 11 4   101.15   -7 LegendNANA
03:00 -4.8 -5.5 95   0   101.15     LegendNANA
04:00 -4.6 -5.3 95 14 2   101.17   -5 LegendNANA
05:00 -4.7 -5.8 92 15 4   101.20   -6 LegendNANA
06:00 -5.2 -5.9 95 13 9   101.25   -9 LegendNANA
07:00 -7.9 -8.8 93 4 4   101.26   -10 LegendNANA
08:00 -5.5 -6.4 93 8 2   101.28   -6 LegendNANA
09:00 -5.4 -6.1 95 11 2   101.31   -6 LegendNANA
10:00 -5.5 -6.1 96 10 4   101.32   -7 LegendNANA
11:00 -4.9 -6.4 89 2 2   101.33   -6 LegendNANA
12:00 -2.7 -5.8 79 12 9   101.35   -6 LegendNANA
13:00 -4.0 -5.3 91 14 2   101.39   -5 LegendNANA
14:00 -3.0 -4.7 88 7 6   101.39   -5 LegendNANA
15:00 -1.1 -4.6 77 7 9   101.39   -4 LegendNANA
16:00 -1.0 -5.2 73 7 13   101.43   -5 LegendNANA
17:00 -0.9 -5.8 69 5 11   101.44   -5 LegendNANA
18:00 -1.1 -6.2 68 29 13   101.44   -5 LegendNANA
19:00 -0.9 -6.3 67 6 13   101.47   -5 LegendNANA
20:00 -3.2 -6.1 80 12 9   101.48   -7 LegendNANA
21:00 -4.8 -7.3 83 7 2   101.47   -6 LegendNANA
22:00 -4.1 -6.4 84 9 4   101.45   -6 LegendNANA
23:00 -3.8 -6.5 81 13 4   101.46   -5 LegendNANA

Notes on Data Quality.

Legend

  • E = Estimated
  • M = Missing
  • NA = Not Available
  • ‡ = Partner data that is not subject to review by the National Climate Archives
Date modified: